"Pseudo-MPEC" for P112l4y

Created 2020 Jul 5 17:07:08 UT using Find_Orb

Click here for an explanation of pseudo-MPECs

 
 Astrometry: 
     P112l4y  C2020 06 30iMoH#[vRw_dGq^Astrometry:dm[Z3gLj%(wPQredacted;/G@6=F51
     P112l4y  C2020 06 30h9s$6KUu6ltqVARjTsclickqyyhereSv)*_+JvHm5Aq%lLU\)!WXF51
     P112l4y  C2020 06 30R,-YM,X'\1vG6LforI)aDAjvMcw^c/6Ifexplanationw)9];ttWF51

Station data:
(F51) Pan-STARRS 1, Haleakala  (N20.707235 W156.255910)  US/Hawaii.
   Observers N. Primak, A. Schultz, S. Watters, J. Thiel, T. Goggia. Measurer
   PS1 Science Consortium. 1.8-m Ritchey-Chrétien + CCD.

Orbital elements:  P112l4y
   Perihelion 2020 Sep 20.110803 +/- 25.3 TT =  2:39:33 (JD 2459112.610803)
Epoch 2020 Jul  1.0 TT = JDT 2459031.5   Earth MOID: 0.0262   AutoNEOCP
M 288.88059175 +/- 36               (J2000 ecliptic)
n   0.87681795 +/- 0.602            Peri.  276.10067 +/- 70
a   1.08109309 +/- 0.495            Node    94.94661 +/- 70
e   0.1612835 +/- 0.244             Incl.    5.44169 +/- 33
P   1.12/410.57d           H 25.6   G  0.15   U 12.4  SR
q 0.90673055 +/- 0.383    Q 1.25545564 +/- 22.7
From 3 observations 2020 June 30 (24.2 min); mean residual 0".04
Residuals in arcseconds: 
200630 F51  .04+  .01+    200630 F51  .09-  .02-    200630 F51  .04+  .01+    

Ephemerides (geocentric):
Date (UTC) HH   RA              Dec         delta   r     elong  mag " sig PA
---- -- -- --  -------------   -----------  ------ ------ -----  --- ---- ---
2020 07 05 17  23 40 32.752   -28 19 24.61  .04629 1.0388 117.4 21.1  60d 161
2020 07 05 18  23 41 21.346   -28 21 30.91  .04625 1.0387 117.2 21.1  60d 161
2020 07 05 19  23 42 10.048   -28 23 36.37  .04621 1.0386 117.1 21.1  60d 161
2020 07 05 20  23 42 58.858   -28 25 40.98  .04617 1.0384 117.0 21.1  60d 161
2020 07 05 21  23 43 47.775   -28 27 44.74  .04613 1.0383 116.8 21.1  60d 161
2020 07 05 22  23 44 36.799   -28 29 47.64  .04609 1.0382 116.7 21.1  60d 161
2020 07 05 23  23 45 25.927   -28 31 49.66  .04605 1.0381 116.6 21.1  60d 161
2020 07 06 00  23 46 15.161   -28 33 50.80  .04601 1.0380 116.4 21.1  60d 161
2020 07 06 01  23 47 04.498   -28 35 51.05  .04598 1.0379 116.3 21.1  59d 161
2020 07 06 02  23 47 53.938   -28 37 50.41  .04594 1.0378 116.2 21.1  59d 161
2020 07 06 03  23 48 43.480   -28 39 48.85  .04590 1.0377 116.0 21.1  59d 160
2020 07 06 04  23 49 33.123   -28 41 46.37  .04587 1.0375 115.9 21.1  59d 160
2020 07 06 05  23 50 22.866   -28 43 42.97  .04583 1.0374 115.8 21.1  59d 160
2020 07 06 06  23 51 12.708   -28 45 38.63  .04580 1.0373 115.6 21.1  59d 160
2020 07 06 07  23 52 02.649   -28 47 33.35  .04576 1.0372 115.5 21.2  59d 160
2020 07 06 08  23 52 52.687   -28 49 27.11  .04573 1.0371 115.4 21.2  59d 160
2020 07 06 09  23 53 42.822   -28 51 19.91  .04569 1.0370 115.2 21.2  59d 160
2020 07 06 10  23 54 33.052   -28 53 11.73  .04566 1.0369 115.1 21.2  59d 160
2020 07 06 11  23 55 23.377   -28 55 02.58  .04563 1.0368 114.9 21.2  59d 160
2020 07 06 12  23 56 13.795   -28 56 52.44  .04560 1.0366 114.8 21.2  59d 160
2020 07 06 13  23 57 04.306   -28 58 41.30  .04556 1.0365 114.7 21.2  59d 160
2020 07 06 14  23 57 54.908   -29 00 29.15  .04553 1.0364 114.5 21.2  59d 160
2020 07 06 15  23 58 45.601   -29 02 15.99  .04550 1.0363 114.4 21.2  59d 160
2020 07 06 16  23 59 36.383   -29 04 01.80  .04547 1.0362 114.3 21.2  59d 160
2020 07 06 17  00 00 27.253   -29 05 46.58  .04544 1.0361 114.1 21.2  59d 160
2020 07 06 18  00 01 18.211   -29 07 30.33  .04541 1.0360 114.0 21.2  59d 160
2020 07 06 19  00 02 09.255   -29 09 13.02  .04538 1.0359 113.8 21.2  59d 160
2020 07 06 20  00 03 00.384   -29 10 54.66  .04536 1.0357 113.7 21.2  59d 160
2020 07 06 21  00 03 51.597   -29 12 35.23  .04533 1.0356 113.6 21.2  59d 160
2020 07 06 22  00 04 42.893   -29 14 14.74  .04530 1.0355 113.4 21.2  59d 160
2020 07 06 23  00 05 34.270   -29 15 53.16  .04527 1.0354 113.3 21.2  58d 160
2020 07 07 00  00 06 25.728   -29 17 30.49  .04525 1.0353 113.1 21.2  58d 160
2020 07 07 01  00 07 17.266   -29 19 06.73  .04522 1.0352 113.0 21.2  58d 160
2020 07 07 02  00 08 08.881   -29 20 41.86  .04519 1.0351 112.9 21.2  58d 160
2020 07 07 03  00 09 00.574   -29 22 15.88  .04517 1.0350 112.7 21.2  58d 160
2020 07 07 04  00 09 52.343   -29 23 48.78  .04515 1.0348 112.6 21.2  58d 160
2020 07 07 05  00 10 44.186   -29 25 20.56  .04512 1.0347 112.4 21.2  58d 160
2020 07 07 06  00 11 36.102   -29 26 51.20  .04510 1.0346 112.3 21.2  58d 160
2020 07 07 07  00 12 28.091   -29 28 20.71  .04507 1.0345 112.1 21.2  58d 160
2020 07 07 08  00 13 20.150   -29 29 49.06  .04505 1.0344 112.0 21.2  58d 159
2020 07 07 09  00 14 12.280   -29 31 16.26  .04503 1.0343 111.9 21.2  58d 159
2020 07 07 10  00 15 04.477   -29 32 42.30  .04501 1.0342 111.7 21.2  58d 159
2020 07 07 11  00 15 56.742   -29 34 07.17  .04499 1.0341 111.6 21.2  58d 159
2020 07 07 12  00 16 49.073   -29 35 30.86  .04497 1.0340 111.4 21.2  58d 159
2020 07 07 13  00 17 41.468   -29 36 53.37  .04495 1.0338 111.3 21.2  58d 159
2020 07 07 14  00 18 33.926   -29 38 14.69  .04493 1.0337 111.1 21.2  58d 159
2020 07 07 15  00 19 26.446   -29 39 34.82  .04491 1.0336 111.0 21.2  58d 159
2020 07 07 16  00 20 19.027   -29 40 53.74  .04489 1.0335 110.9 21.2  58d 159